Flag for Germany Weather past 2 weeks in Pirna, Saxony, Germany

Now
38 °F

Passing clouds.


Feels Like: 31 °F
Forecast: 27 / 37 °F
Wind: 9 mph from West

Location: Dresden-Klotzsche

Current Time: Dec 25, 2014 at 10:36:25 PM

Latest Report: Dec 25, 2014 at 9:00 PM


Visibility: 19 mi

Pressure: 30.09 "Hg

Humidity: 79%

Dew point: 32 °F

Location of PirnaLocation

Historic Weather in Pirna — Graph

°F

Pirna temperature yesterday

Maximum temperature yesterday: 49 °F (at 12:00 AM)
Minimum temperature yesterday: 43 °F (at 11:00 PM)
Average temperature yesterday: 46 °F

Past Weeks' High & Low Weather Summary

 TemperatureHumidityPressure
High54 °F (Dec 19, 2:00 AM)100% (Dec 14, 9:00 PM)30.32 "Hg (Dec 14, 9:00 PM)
Low33 °F (Dec 11, 7:00 AM)62% (Dec 15, 6:00 PM)29.56 "Hg (Dec 12, 11:00 PM)
Average43 °F82%29.93 "Hg
* Reported Dec 10 9:00 PM — Dec 25 9:00 PM, Pirna, Weather by CustomWeather, © 2014

Note: Actual official high and low records may vary slightly from our data, if they occured in-between our weather recording intervals... More about our weather records

Advertising

Pirna weather history for previous 24 hours

 ConditionsComfort  
Time TempWeatherWind HumidityBarometerVisibility
9:00 PM
Dec 25
38 °FPassing clouds.9 mph79%30.09 "Hg19 mi
8:00 PM38 °FPassing clouds.9 mph81%30.10 "Hg19 mi
7:00 PM37 °FPassing clouds.6 mph85%30.09 "Hg16 mi
6:00 PM38 °FPassing clouds.7 mph88%30.09 "Hg22 mi
5:00 PM35 °FSprinkles. Low clouds.9 mph96%30.09 "Hg3 mi
3:00 PM42 °FOvercast.9 mph69%30.06 "Hg22 mi
2:00 PM42 °FOvercast.9 mph69%30.06 "Hg22 mi
1:00 PM42 °FOvercast.10 mph68%30.06 "Hg19 mi
12:00 PM42 °FPartly sunny.10 mph67%30.07 "Hg22 mi
11:00 AM40 °FPartly sunny.10 mph72%30.09 "Hg22 mi
9:00 AM37 °FScattered clouds.7 mph80%30.09 "Hg19 mi
8:00 AM36 °FPassing clouds.7 mph83%30.08 "Hg22 mi
7:00 AM37 °FPassing clouds.6 mph85%30.08 "Hg22 mi
6:00 AM37 °FPassing clouds.6 mph86%30.06 "Hg16 mi
5:00 AM38 °FPassing clouds.6 mph88%30.05 "Hg14 mi
3:00 AM39 °FLight rain. Low clouds.5 mph94%30.04 "Hg14 mi
2:00 AM39 °FLight rain. Low clouds.6 mph93%30.04 "Hg11 mi
1:00 AM41 °FLight rain. Overcast.8 mph88%30.01 "Hg7 mi
12:00 AM42 °FLight rain. Low clouds.8 mph89%30.00 "Hg6 mi
11:00 PM
Dec 24
43 °FSprinkles. Low clouds.7 mph94%29.97 "Hg6 mi
Weather by CustomWeather, © 2014

See weather overviewHow to use our weather pages